Regional Weather Roundup
Issued by NWS State College, PA

Home | Current Version | Previous Version | Text Only | Print | Product List | Glossary Off
Versions: 1 2 3 4 5 6 7 8 9 10 11 12 13 14 15 16 17 18 19 20 21 22 23 24 25 26 27 28 29 30 31 32 33 34 35 36 37 38 39 40 41 42 43 44 45 46 47 48 49 50

000
ASUS41 KCTP 171910
RWRCTP

REGIONAL WEATHER ROUNDUP
NATIONAL WEATHER SERVICE STATE COLLEGE PA
300 PM EDT TUE OCT 17 2017

Note: "fair" indicates few or no clouds below 12,000 feet with no
significant weather and/or obstructions to visibility.

* = STATION THAT DOES NOT REPORT PRECIPITATION /E.G. RAIN...SNOW...ETC/
    THUNDER OR FOG.

PAZ002>004-007>009-013>016-020>023-029>032-172000-
WESTERN PENNSYLVANIA

CITY           SKY/WX    TMP DP  RH WIND       PRES   REMARKS
ERIE           SUNNY     65  39  38 SW12      30.20F
MEADVILLE      SUNNY     60  39  45 SW12G23   30.23F
FRANKLIN*      SUNNY     59  39  47 SW15G22   30.25F
NEW CASTLE     FAIR      63  39  41 SW8       30.26F
BEAVER COUNTY  SUNNY     64  39  39 W8        30.27F
BUTLER*          N/A     60  39  45 SW7       30.27F
PITTSBURGH INT MOSUNNY   62  38  40 SW9       30.28F
PITTSBURGH     SUNNY     60  35  39 SW10G16   30.28F
INDIANA*       SUNNY     59  39  47 VRB3G13   30.30F
LATROBE        SUNNY     59  37  44 W7        30.30F
WASHINGTON CO* SUNNY     61  39  44 W9        30.31F
$$

PAZ004>006-010>012-017>019-024>028-033>037-041-042-045-046-049>053-172000-
CENTRAL PENNSYLVANIA

CITY           SKY/WX    TMP DP  RH WIND       PRES   REMARKS
BRADFORD       SUNNY     57  36  45 SW7       30.23F
DUBOIS         SUNNY     57  36  45 SW15      30.25F
CLEARFIELD     SUNNY     59  36  42 SW10      30.26F
JOHNSTOWN      SUNNY     55  35  47 MISG      30.27F
ALTOONA        SUNNY     61  34  36 VRB3      30.27F
STATE COLLEGE  SUNNY     59  36  41 SW5       30.26F
WILLIAMSPORT   SUNNY     61  37  41 VRB3      30.24F
SELINSGROVE    SUNNY     59  37  44 S6        30.27F
FT INDIANTOWN  SUNNY     60  29  31 W9        30.27F
CAPITAL CITY   SUNNY     61  31  32 S6        30.29F
HARRISBURG     SUNNY     60  32  34 NW6       30.28F
YORK           SUNNY     59  33  37 VRB3      30.29F
$$

PAZ038>040-043-044-047-048-054-055-060>062-067>071-172000-
EASTERN PENNSYLVANIA

CITY           SKY/WX    TMP DP  RH WIND       PRES   REMARKS
SCRANTON       SUNNY     58  31  35 SW7       30.25F
MOUNT POCONO   SUNNY     54  22  28 SW10      30.24F
ALLENTOWN      SUNNY     61  33  35 CALM      30.27F
QUAKERTOWN*    CLEAR     59  32  36 W5        30.29F
READING        SUNNY     60  36  40 W5        30.28F
LANCASTER      SUNNY     58  33  39 SW7       30.29F
COATESVILLE    CLEAR     57  34  41 W6        30.30F
POTTSTOWN      SUNNY     58  34  40 CALM      30.30F
BLUE BELL      SUNNY     59  36  41 CALM      30.30F
DOYLESTOWN     SUNNY     58  34  40 CALM      30.27F
WILLOW GROVE   NOT AVBL
NORTH PHILA    SUNNY     62  35  36 CALM      30.30F
PHILADELPHIA   SUNNY     60  32  34 N6        30.30F
$$



USA.gov is the U.S. government's official web portal to all federal, state and local government web resources and services.